OK1PHU-5 Weather Reports


time (UTC)temp
F
wind
direction
speed
knots
gust
knots
rain 1hr
in
rain 24hr
in
rain mn
in
humidity
%
barometer
mb
20260506164628 0 0 0.0 0.0 0.00 0.00 0.00 98 1001.6
20260506162625 0 0 0.0 0.0 0.00 0.00 0.00 95 1001.7
20260506161625 0 0 0.0 0.0 0.00 0.00 0.00 93 1001.6
20260506160625 0 0 0.0 0.0 0.00 0.00 0.00 90 1001.7
20260506155625 0 0 0.0 0.0 0.00 0.00 0.00 85 1001.5
20260506154625 0 0 0.0 0.0 0.00 0.00 0.00 76 1001.4
20260506152621 0 0 0.0 0.0 0.00 0.00 0.00 76 1001.6
20260506151621 0 0 0.0 0.0 0.00 0.00 0.00 77 1001.6
20260506150621 0 0 0.0 0.0 0.00 0.00 0.00 76 1001.6
20260506145621 0 0 0.0 0.0 0.00 0.00 0.00 75 1001.5
20260506144621 0 0 0.0 0.0 0.00 0.00 0.00 76 1001.7
20260506143618 0 0 0.0 0.0 0.00 0.00 0.00 75 1001.9
20260506142618 0 0 0.0 0.0 0.00 0.00 0.00 74 1002.0
20260506141618 0 0 0.0 0.0 0.00 0.00 0.00 73 1002.0
20260506140618 0 0 0.0 0.0 0.00 0.00 0.00 72 1001.9
20260506135618 0 0 0.0 0.0 0.00 0.00 0.00 72 1002.0
20260506134618 0 0 0.0 0.0 0.00 0.00 0.00 71 1002.0
20260506132615 0 0 0.0 0.0 0.00 0.00 0.00 72 1002.7
20260506131615 0 0 0.0 0.0 0.00 0.00 0.00 71 1002.7
20260506130615 0 0 0.0 0.0 0.00 0.00 0.00 68 1002.4
20260506125615 0 0 0.0 0.0 0.00 0.00 0.00 68 1002.7
20260506124615 0 0 0.0 0.0 0.00 0.00 0.00 68 1002.7
20260506123612 0 0 0.0 0.0 0.00 0.00 0.00 67 1002.8
20260506122612 0 0 0.0 0.0 0.00 0.00 0.00 67 1002.7
20260506121612 0 0 0.0 0.0 0.00 0.00 0.00 67 1002.7
20260506120612 0 0 0.0 0.0 0.00 0.00 0.00 70 1002.8
20260506115611 0 0 0.0 0.0 0.00 0.00 0.00 66 1002.7
20260506114611 0 0 0.0 0.0 0.00 0.00 0.00 66 1002.9
20260506112608 0 0 0.0 0.0 0.00 0.00 0.00 65 1002.9
20260506111608 0 0 0.0 0.0 0.00 0.00 0.00 64 1002.8
20260506110608 0 0 0.0 0.0 0.00 0.00 0.00 63 1002.7
20260506105608 0 0 0.0 0.0 0.00 0.00 0.00 64 1002.6
20260506104608 0 0 0.0 0.0 0.00 0.00 0.00 65 1002.8
20260506102605 0 0 0.0 0.0 0.00 0.00 0.00 68 1003.2
20260506101605 0 0 0.0 0.0 0.00 0.00 0.00 66 1003.2
20260506100605 0 0 0.0 0.0 0.00 0.00 0.00 68 1003.3
20260506095605 0 0 0.0 0.0 0.00 0.00 0.00 70 1003.2
20260506094605 0 0 0.0 0.0 0.00 0.00 0.00 68 1003.5
20260506092602 0 0 0.0 0.0 0.00 0.00 0.00 70 1003.4
20260506091602 0 0 0.0 0.0 0.00 0.00 0.00 68 1003.6
20260506090602 0 0 0.0 0.0 0.00 0.00 0.00 68 1003.2
20260506085602 0 0 0.0 0.0 0.00 0.00 0.00 72 1003.8
20260506084602 0 0 0.0 0.0 0.00 0.00 0.00 76 1003.6
20260506083559 0 0 0.0 0.0 0.00 0.00 0.00 71 1003.7
20260506082558 0 0 0.0 0.0 0.00 0.00 0.00 70 1003.4
20260506081558 0 0 0.0 0.0 0.00 0.00 0.00 73 1003.6
20260506080558 0 0 0.0 0.0 0.00 0.00 0.00 73 1003.4
20260506072555 0 0 0.0 0.0 0.00 0.00 0.00 68 1003.4
20260506071555 0 0 0.0 0.0 0.00 0.00 0.00 67 1003.1
20260506070555 0 0 0.0 0.0 0.00 0.00 0.00 69 1003.4
20260506061552 0 0 0.0 0.0 0.00 0.00 0.00 63 1002.4
20260506060552 0 0 0.0 0.0 0.00 0.00 0.00 65 1002.6
20260506050549 0 0 0.0 0.0 0.00 0.00 0.00 81 1003.1
20260506044549 0 0 0.0 0.0 0.00 0.00 0.00 94 1003.7
20260506042545 0 0 0.0 0.0 0.00 0.00 0.00 99 1004.9
20260506041545 0 0 0.0 0.0 0.00 0.00 0.00 99 1004.9
20260506040545 0 0 0.0 0.0 0.00 0.00 0.00 99 1004.8
20260506035545 0 0 0.0 0.0 0.00 0.00 0.00 99 1004.6
20260506034545 0 0 0.0 0.0 0.00 0.00 0.00 99 1004.6
20260506032542 0 0 0.0 0.0 0.00 0.00 0.00 99 1004.4
20260506031542 0 0 0.0 0.0 0.00 0.00 0.00 99 1004.4
20260506030542 0 0 0.0 0.0 0.00 0.00 0.00 99 1004.5
20260506025542 0 0 0.0 0.0 0.00 0.00 0.00 99 1004.7
20260506024542 0 0 0.0 0.0 0.00 0.00 0.00 99 1004.6
20260506023539 0 0 0.0 0.0 0.00 0.00 0.00 99 1004.5
20260506022541 0 0 0.0 0.0 0.00 0.00 0.00 99 1004.4
20260506021540 0 0 0.0 0.0 0.00 0.00 0.00 99 1004.5
20260506020540 0 0 0.0 0.0 0.00 0.00 0.00 99 1004.2
20260506015539 0 0 0.0 0.0 0.00 0.00 0.00 99 1004.1
20260506013536 0 0 0.0 0.0 0.00 0.00 0.00 99 1004.3
20260506012536 0 0 0.0 0.0 0.00 0.00 0.00 99 1004.1
20260506011536 0 0 0.0 0.0 0.00 0.00 0.00 99 1004.1
20260506010536 0 0 0.0 0.0 0.00 0.00 0.00 99 1004.1
20260506005536 0 0 0.0 0.0 0.00 0.00 0.00 99 1003.9
20260506004536 0 0 0.0 0.0 0.00 0.00 0.00 99 1004.2
20260506002532 0 0 0.0 0.0 0.00 0.00 0.00 99 1004.1
20260506001532 0 0 0.0 0.0 0.00 0.00 0.00 99 1003.9
20260506000532 0 0 0.0 0.0 0.00 0.00 0.00 99 1003.9
20260505235532 0 0 0.0 0.0 0.00 0.00 0.00 98 1004.0
20260505234532 0 0 0.0 0.0 0.00 0.00 0.00 91 1004.0
20260505232529 0 0 0.0 0.0 0.00 0.00 0.00 88 1003.8
20260505231529 0 0 0.0 0.0 0.00 0.00 0.00 88 1003.7
20260505230529 0 0 0.0 0.0 0.00 0.00 0.00 88 1003.6
20260505225529 0 0 0.0 0.0 0.00 0.00 0.00 88 1003.5
20260505224529 0 0 0.0 0.0 0.00 0.00 0.00 88 1003.2
20260505222526 0 0 0.0 0.0 0.00 0.00 0.00 87 1002.8
20260505221526 0 0 0.0 0.0 0.00 0.00 0.00 87 1002.5
20260505220526 0 0 0.0 0.0 0.00 0.00 0.00 86 1002.2
20260505215526 0 0 0.0 0.0 0.00 0.00 0.00 85 1002.1
20260505214526 0 0 0.0 0.0 0.00 0.00 0.00 85 1002.2
20260505212523 0 0 0.0 0.0 0.00 0.00 0.00 84 1002.1
20260505211522 0 0 0.0 0.0 0.00 0.00 0.00 84 1002.4
20260505210522 0 0 0.0 0.0 0.00 0.00 0.00 83 1002.1
20260505205522 0 0 0.0 0.0 0.00 0.00 0.00 83 1002.3
20260505204522 0 0 0.0 0.0 0.00 0.00 0.00 83 1002.3
20260505203519 0 0 0.0 0.0 0.00 0.00 0.00 82 1002.3
20260505202519 0 0 0.0 0.0 0.00 0.00 0.00 81 1002.4
20260505201519 0 0 0.0 0.0 0.00 0.00 0.00 80 1002.3
20260505200519 0 0 0.0 0.0 0.00 0.00 0.00 79 1002.2
20260505195519 0 0 0.0 0.0 0.00 0.00 0.00 78 1002.4
20260505194519 0 0 0.0 0.0 0.00 0.00 0.00 77 1002.4
20260505192516 0 0 0.0 0.0 0.00 0.00 0.00 75 1002.5
20260505191516 0 0 0.0 0.0 0.00 0.00 0.00 74 1002.3
20260505190516 0 0 0.0 0.0 0.00 0.00 0.00 72 1002.1
20260505185516 0 0 0.0 0.0 0.00 0.00 0.00 71 1002.0
20260505184516 0 0 0.0 0.0 0.00 0.00 0.00 69 1002.0
20260505182513 0 0 0.0 0.0 0.00 0.00 0.00 65 1001.7
20260505181513 0 0 0.0 0.0 0.00 0.00 0.00 65 1001.6
20260505180513 0 0 0.0 0.0 0.00 0.00 0.00 62 1001.6
20260505175513 0 0 0.0 0.0 0.00 0.00 0.00 61 1001.5
20260505174513 0 0 0.0 0.0 0.00 0.00 0.00 62 1001.6
20260505172510 0 0 0.0 0.0 0.00 0.00 0.00 61 1001.7
20260505171509 0 0 0.0 0.0 0.00 0.00 0.00 61 1001.5
20260505170509 0 0 0.0 0.0 0.00 0.00 0.00 61 1001.6
20260505165509 0 0 0.0 0.0 0.00 0.00 0.00 60 1001.4